Terminal Aerodrome Forecast
Issued by NWS Cleveland, OH

Home | Current Version | Previous Version | Text Only | Print | Product List | Glossary On
Versions: 1 2 3 4 5 6 7 8 9 10 11 12 13 14 15 16 17 18 19 20 21 22 23 24 25 26 27 28 29 30 31
000
FTUS41 KCLE 220200 AAB
TAFCLE
TAF AMD
KCLE 220256Z 2203/2306 35012KT P6SM OVC018
      TEMPO 2204/2206 6SM -SHRA
     FM221000 36012KT P6SM OVC020
     FM222000 36010KT P6SM BKN035
     FM230100 36008KT P6SM SCT035=

USA.gov is the U.S. government's official web portal to all federal, state and local government web resources and services.